EHI
0 0 0 0 0 0 0 0 0 0 0 2 6 12 20 31 43 55 61 66 72 72 65 59 56 50 43 38 35 31 29 27 26 24 23 22 19 17 15 10 7 6 5 4
0 0 0 0 0 0 0 0 0 0 2 6 11 18 27 36 46 53 57 65 72 72 68 63 59 54 48 43 39 35 32 30 29 27 24 23 21 20 18 14 11 9 6 5
0 0 0 0 0 0 0 0 0 2 8 16 24 31 39 47 53 56 58 66 73 74 70 67 62 56 51 47 43 39 35 33 32 30 27 24 23 23 20 17 13 10 8 7
0 0 0 0 0 0 0 0 1 5 13 23 30 36 44 52 60 62 65 71 76 75 72 68 62 56 51 46 43 39 36 33 33 33 29 23 21 21 18 14 11 9 8 6
0 0 0 0 0 1 0 1 4 12 19 23 23 27 38 51 59 64 69 73 75 74 72 68 64 59 53 47 43 39 35 32 32 33 29 22 18 17 13 9 8 6 5 3
0 0 0 0 0 0 0 2 9 20 28 26 22 25 39 50 54 57 63 68 69 67 66 65 64 60 54 47 41 37 33 31 29 28 25 21 17 13 9 6 5 3 1 1
0 0 0 0 0 1 4 7 11 18 25 27 29 34 40 44 42 43 48 53 54 53 53 54 54 50 45 39 35 31 28 25 23 20 17 15 13 10 6 4 2 1 0 0
0 0 1 1 1 3 8 10 8 9 11 16 23 28 30 27 25 25 28 31 34 36 38 39 39 36 32 30 27 24 20 16 14 11 9 8 7 6 3 1 1 0 0 0
1 1 1 2 2 4 7 6 4 4 4 6 10 14 15 13 11 12 13 15 19 22 25 26 26 25 22 20 19 15 11 7 5 4 3 3 3 2 1 0 0 0 0 0
2 1 1 1 1 2 2 2 2 4 4 3 4 7 9 8 7 7 8 10 11 11 11 12 13 14 11 10 9 7 4 2 1 1 0 1 1 0 0 0 0 0 0 0
1 1 0 0 1 1 0 0 2 4 4 2 3 5 7 7 5 5 5 7 6 4 2 2 3 3 2 2 2 1 0 0 0 0 0 0 0 0 0 0 0 0 0 0
0 0 0 0 0 0 0 0 1 2 2 2 2 3 4 5 4 3 3 3 2 1 0 0 0 0 0 0 0 0 0 0 0 0 0 0 0 0 0 0 0 0 0 0
0 0 0 0 0 0 0 0 0 0 0 1 1 1 2 2 3 2 1 0 0 0 0 0 0 0 0 0 0 0 0 0 0 0 0 0 0 0 0 0 0 0 0 0
0 0 0 0 0 0 0 0 0 0 0 0 0 0 0 1 1 1 1 0 0 0 0 0 0 0 0 0 0 0 0 0 0 0 0 0 0 0 0 0 0 0 0 0
0 0 0 0 0 0 0 0 0 0 0 0 0 0 0 0 0 0 0 0 0 0 0 0 0 0 0 0 0 0 0 0 0 0 0 0 0 0 0 0 0 0 0 0
0 0 0 0 0 0 0 0 0 0 0 0 0 0 0 0 0 0 0 0 0 0 0 0 0 0 0 0 0 0 0 0 0 0 0 0 0 0 0 0 0 0 0 0
0 0 0 0 0 0 0 0 0 0 0 0 0 0 0 0 0 0 0 0 0 0 0 0 0 0 0 0 0 0 0 0 0 0 0 0 0 0 0 0 0 0 0 0
0 0 0 0 0 0 0 0 0 0 0 0 0 0 0 0 0 0 0 0 0 0 0 0 0 0 0 0 0 0 0 0 0 0 0 0 0 0 0 0 0 0 0 0
1 1 0 0 0 0 0 0 0 0 0 0 0 0 0 0 0 0 0 0 0 0 0 0 0 0 0 0 0 0 0 0 0 0 0 0 0 0 0 0 0 0 0 0
2 1 0 0 0 0 0 0 0 0 0 0 0 0 0 0 0 0 0 0 0 0 0 0 0 0 0 0 0 0 0 0 0 0 0 0 0 0 0 0 0 0 0 0
1 1 0 0 0 0 0 0 0 0 0 0 0 0 0 0 0 0 0 0 0 0 0 0 0 0 0 0 0 0 0 0 0 0 0 0 0 0 0 0 0 0 0 0
0 0 0 0 0 0 0 0 0 0 0 0 0 0 0 0 0 0 0 0 0 0 0 0 0 0 0 0 0 0 0 0 0 0 0 0 0 0 0 0 0 0 0 0
0 0 0 0 0 0 0 0 0 0 0 0 0 0 0 0 0 0 0 0 0 0 0 0 0 0 0 0 0 0 0 0 0 0 0 0 0 0 0 0 0 0 0 0
0 0 0 0 0 0 0 0 0 0 0 0 0 0 0 0 0 0 0 0 0 0 0 0 0 0 0 0 0 0 0 0 0 0 0 0 0 0 0 0 0 0 0 0
0 0 0 0 0 0 0 0 0 0 0 0 0 0 0 0 0 0 0 0 0 0 0 0 0 0 0 0 0 0 0 0 0 0 0 0 0 0 0 0 0 0 0 0
0 0 0 0 0 0 0 0 0 0 0 0 0 0 0 0 0 0 0 0 0 0 0 0 0 0 0 0 0 0 0 0 0 0 0 0 0 0 0 0 0 0 0 0
0 0 0 0 0 0 0 0 0 0 0 0 0 0 0 0 0 0 0 0 0 0 0 0 0 0 0 0 0 0 0 0 0 0 0 0 0 0 0 0 0 0 0 0
Wind_Speed
17 15 9 7 9 11 12 14 15 12 8 1 2 1 2 3 7 9 10 12 11 10 9 9 9 9 9 9 9 9 9 9 8 8 7 6 6 5 5 4 4 3 2 2
15 15 12 9 8 9 13 15 17 14 9 4 2 3 3 6 8 9 10 11 12 11 11 10 10 10 9 8 8 8 8 8 8 7 6 6 6 5 5 4 4 5 5 5
14 15 13 12 11 12 14 16 14 12 6 2 3 4 5 5 7 8 9 10 11 11 10 9 9 9 9 9 8 8 7 6 7 7 7 6 6 6 6 6 6 7 7 8
12 14 17 10 8 9 10 10 9 7 7 6 6 7 8 6 6 4 5 7 9 9 9 9 9 9 8 8 8 8 7 7 7 7 7 6 6 7 7 7 7 7 8 9
9 13 14 12 8 8 9 9 7 6 6 6 6 3 7 8 8 7 7 6 5 7 9 8 8 9 9 8 8 7 7 6 6 7 7 8 8 8 7 7 7 8 8 9
10 12 12 7 6 7 7 5 10 9 7 4 3 2 5 10 12 12 10 9 8 7 8 8 7 8 9 9 8 8 8 7 7 8 9 9 9 8 8 8 9 8 9 9
12 13 9 6 7 5 6 3 9 9 8 7 7 6 7 9 11 11 10 10 9 9 8 7 8 10 10 10 9 9 9 10 10 9 10 10 9 8 8 9 9 9 9 9
8 11 5 11 9 7 6 7 7 7 7 8 8 8 9 10 10 10 10 10 10 9 9 8 8 11 11 11 10 10 11 11 11 10 9 10 9 8 8 9 9 8 7 7
3 3 5 7 6 6 7 7 6 5 5 5 6 7 9 9 10 10 10 10 10 11 12 10 10 11 12 10 11 12 12 12 11 11 10 9 9 8 6 5 5 5 5 6
4 2 4 6 7 8 7 6 5 4 4 4 6 8 9 10 10 10 10 10 10 12 13 12 11 12 12 11 11 13 13 12 11 11 10 10 8 7 6 5 4 5 5 6
5 4 5 5 8 8 7 6 5 4 4 5 7 9 10 10 11 10 11 10 11 12 13 13 12 12 11 10 11 13 12 11 10 10 10 11 11 9 9 9 8 7 7 7
3 4 4 5 6 6 5 5 4 5 6 7 9 12 12 12 11 11 12 11 12 13 13 13 12 12 10 9 10 10 9 8 8 8 8 8 10 10 16 12 14 15 13 10
3 4 3 3 5 5 4 5 6 7 8 10 11 13 15 14 13 13 13 13 12 13 13 12 11 11 9 8 8 8 8 7 6 6 7 7 7 8 8 8 12 12 11 10
4 3 3 3 4 5 7 9 10 10 10 12 13 14 14 15 14 13 13 12 12 12 12 11 11 10 8 8 8 7 7 7 6 5 5 6 6 6 6 7 6 5 4 4
5 5 5 6 8 9 10 11 12 12 13 14 14 14 14 15 14 13 12 12 12 12 12 11 11 9 7 8 8 8 7 5 4 4 4 4 4 5 5 6 6 6 4 3
6 8 8 10 10 10 11 12 13 14 14 14 14 13 13 14 14 13 11 10 11 12 10 9 9 7 6 6 6 6 5 6 4 3 4 4 3 4 4 4 5 5 4 3
8 8 9 10 11 11 12 12 13 14 14 14 14 14 14 14 13 12 11 10 11 10 9 8 8 6 5 4 4 4 5 5 3 4 5 4 5 5 5 5 4 4 5 4
9 9 9 11 12 13 13 14 14 14 13 14 14 14 13 13 13 12 11 10 11 10 9 8 7 6 5 5 4 3 4 4 5 6 6 5 4 5 5 5 4 5 4 4
11 12 12 12 13 13 14 14 14 13 13 13 13 12 12 12 11 11 10 10 10 9 8 7 6 6 5 5 3 2 4 5 6 5 5 4 3 5 5 4 4 4 4 3
13 13 14 14 14 14 14 13 14 12 12 12 12 12 12 11 11 10 9 8 7 7 7 6 5 5 4 3 3 3 5 6 6 5 4 4 5 5 4 4 5 4 4 4
14 14 15 14 14 13 13 13 12 12 11 11 12 12 11 10 9 8 8 8 7 6 6 5 4 4 4 3 1 4 5 5 5 4 4 4 4 5 4 4 4 4 4 4
13 14 14 14 13 12 11 11 12 12 11 10 11 11 10 10 9 8 8 6 6 4 3 5 5 7 7 5 2 5 6 5 5 4 3 3 4 4 4 3 3 3 3 3
12 12 12 12 12 12 12 11 11 10 10 10 9 9 9 8 7 7 7 6 6 5 5 6 7 7 8 2 4 6 5 5 4 3 3 3 4 3 3 3 3 3 3 3
10 10 11 11 12 11 11 10 10 8 9 9 8 8 8 7 7 7 8 8 8 7 6 6 5 6 5 1 4 4 4 3 3 3 3 3 3 3 3 3 2 2 2 3
10 10 11 10 10 9 9 9 9 9 8 7 8 7 6 6 7 8 9 9 8 7 7 5 2 3 2 3 4 5 5 4 4 4 3 3 3 3 2 2 2 2 2 3
8 7 7 6 6 6 6 6 6 6 6 7 6 6 7 7 9 8 7 8 9 6 6 5 4 3 2 3 4 4 4 4 2 2 2 2 2 2 2 3 3 2 2 2
7 7 5 5 5 5 5 5 6 6 6 6 6 6 7 7 7 7 8 7 7 6 5 5 4 3 2 3 4 3 2 2 1 2 2 2 2 2 2 2 2 2 3 3
Wind_Direction
267 270 250 246 271 282 284 280 278 278 288 257 175 189 232 184 145 141 148 149 148 148 149 152 153 156 156 160 160 160 160 162 163 164 165 164 164 165 163 171 174 156 131 106
271 270 264 248 237 252 264 271 274 276 271 235 187 137 192 175 153 156 163 159 154 154 156 159 159 158 156 156 156 157 159 161 159 159 158 158 157 150 137 126 111 105 93 81
269 272 266 251 236 239 245 252 264 280 304 83 120 127 128 130 141 158 165 157 155 157 157 157 158 155 154 151 149 151 154 155 152 152 154 154 149 132 122 114 104 97 92 85
265 270 267 277 279 267 269 276 289 314 354 44 62 60 60 69 90 99 124 138 147 148 148 150 151 150 146 147 146 148 149 149 146 145 139 129 120 113 107 104 102 98 94 90
263 263 262 268 293 315 309 294 328 352 32 55 61 58 56 44 63 70 71 84 109 132 139 139 146 145 141 141 141 141 138 132 131 131 124 116 110 107 105 103 98 95 93 89
253 261 266 290 339 359 321 290 17 23 27 36 15 321 63 53 59 59 58 63 72 93 106 112 121 127 126 123 120 118 117 113 107 106 106 106 104 103 102 101 98 93 86 81
247 256 262 342 337 317 286 3 21 24 25 21 33 55 80 69 65 61 59 63 71 79 87 96 106 111 111 108 106 104 100 96 94 96 97 99 101 102 104 101 98 96 94 88
256 257 262 18 9 16 13 1 8 24 42 57 72 81 86 83 77 72 69 70 77 77 76 81 96 104 103 100 101 99 96 94 92 91 94 96 94 92 97 104 107 108 109 104
274 301 17 18 11 2 347 344 356 15 47 82 95 96 100 95 90 83 78 77 80 83 79 72 80 95 99 99 101 100 94 91 87 83 82 88 91 94 97 101 109 115 115 107
290 297 2 3 11 6 360 357 2 25 55 95 106 111 111 104 98 92 85 83 86 87 85 80 79 86 94 96 97 97 97 95 92 87 79 68 65 64 60 48 71 89 85 88
277 321 343 4 8 1 7 8 18 40 63 98 113 117 114 106 101 98 92 87 86 88 89 87 85 85 86 92 97 99 98 98 96 91 88 77 67 55 64 51 50 64 63 64
325 3 340 342 2 6 21 27 46 72 79 90 106 111 108 102 100 98 95 93 91 91 89 87 86 85 83 86 93 101 103 104 105 108 108 107 101 80 56 65 66 71 76 83
16 16 28 359 9 22 47 57 70 84 93 96 99 105 104 101 98 97 94 93 94 94 93 91 89 86 82 82 86 89 93 96 105 111 116 117 118 117 108 77 63 66 76 85
54 48 44 38 58 69 84 88 89 88 93 99 102 103 103 102 100 97 94 93 92 91 90 88 86 83 82 80 78 82 89 91 97 105 111 116 123 127 130 130 120 104 96 111
60 67 86 90 86 88 93 98 98 96 99 100 102 103 104 103 101 97 94 93 91 88 85 84 83 82 83 84 78 72 75 77 79 95 104 112 124 125 122 123 122 124 130 145
104 100 101 100 98 97 99 100 102 105 106 107 106 106 105 104 103 102 101 102 99 96 94 93 91 88 87 92 96 92 83 71 67 84 92 93 93 97 98 102 108 114 105 78
121 115 113 110 108 108 107 105 106 109 112 115 116 115 112 109 107 106 106 105 101 100 98 94 92 89 83 77 89 101 103 101 89 77 69 66 72 75 73 70 75 87 88 84
118 121 122 122 120 118 118 116 116 116 118 120 120 118 117 116 114 112 112 109 103 98 94 91 87 85 75 55 40 78 92 88 76 73 72 61 57 71 77 77 74 80 102 115
117 117 117 118 120 119 119 119 119 119 121 123 123 122 119 116 117 117 115 112 109 104 99 96 91 91 83 58 22 82 87 94 91 86 88 93 75 70 70 69 65 62 62 64
118 116 115 114 114 115 118 120 121 122 124 127 124 121 118 117 118 116 113 105 100 104 109 107 108 96 87 49 355 83 80 83 84 85 80 76 77 73 65 59 57 55 51 47
119 117 115 113 114 117 119 121 122 123 126 127 125 123 123 124 124 121 116 105 96 97 109 107 94 85 63 13 330 89 87 85 85 79 74 73 72 70 66 59 54 47 42 35
117 115 116 117 117 116 117 119 121 123 124 123 123 124 124 122 117 111 104 106 112 105 119 106 85 57 21 341 74 86 83 80 82 86 80 74 79 76 68 57 53 50 45 35
115 117 119 120 119 117 118 119 121 121 122 123 124 127 126 124 124 122 116 109 108 93 86 82 69 41 358 360 75 82 84 83 83 86 83 77 82 81 73 59 54 51 40 21
113 114 116 117 118 117 116 116 115 117 120 122 124 127 129 123 114 107 107 103 96 100 95 88 61 23 337 72 88 89 85 80 78 74 73 69 68 70 63 51 45 41 41 24
112 114 114 116 119 119 121 125 126 129 130 127 128 127 121 113 114 113 115 118 124 121 118 116 80 343 326 78 83 83 76 54 45 38 58 59 55 63 59 47 38 22 18 17
111 112 112 114 114 126 134 135 136 136 131 125 119 115 108 107 113 120 128 135 136 139 139 147 159 196 172 113 104 101 111 129 142 128 75 63 62 53 44 24 9 5 5 7
123 120 123 125 134 133 127 125 123 123 121 124 125 121 121 125 130 135 140 146 155 158 153 157 160 166 148 128 125 126 127 126 105 93 98 80 60 43 37 12 349 348 339 339